TimeCST,TemperatureF,Dew PointF,Humidity,Sea Level PressureIn,VisibilityMPH,Wind Direction,Wind SpeedMPH,Gust SpeedMPH,PrecipitationIn,Events,Conditions,WindDirDegrees,DateUTC
12:12 AM,41.0,35.1,79,30.43,10.0,NNE,12.7,-,N/A,,Overcast,20,2013-11-23 06:12:00
12:31 AM,41.0,34.0,76,30.43,10.0,NNE,12.7,-,N/A,,Overcast,20,2013-11-23 06:31:00
12:53 AM,41.0,34.0,76,30.44,10.0,North,11.5,-,N/A,,Overcast,10,2013-11-23 06:53:00
1:53 AM,41.0,34.0,76,30.44,10.0,North,11.5,-,N/A,,Overcast,10,2013-11-23 07:53:00
2:53 AM,39.9,32.0,73,30.45,10.0,North,12.7,-,N/A,,Overcast,10,2013-11-23 08:53:00
3:53 AM,39.9,32.0,73,30.46,10.0,North,13.8,-,N/A,,Overcast,10,2013-11-23 09:53:00
4:53 AM,39.0,30.9,73,30.47,10.0,North,16.1,-,N/A,,Overcast,360,2013-11-23 10:53:00
5:53 AM,37.9,30.0,73,30.48,10.0,North,15.0,-,N/A,,Overcast,360,2013-11-23 11:53:00
6:53 AM,37.0,30.0,76,30.51,10.0,North,12.7,-,N/A,,Mostly Cloudy,10,2013-11-23 12:53:00
7:23 AM,37.0,30.0,76,30.51,10.0,North,10.4,-,N/A,,Partly Cloudy,10,2013-11-23 13:23:00
7:53 AM,36.0,30.0,79,30.53,10.0,North,11.5,-,N/A,,Scattered Clouds,360,2013-11-23 13:53:00
8:53 AM,37.9,28.0,68,30.55,10.0,North,16.1,-,N/A,,Clear,10,2013-11-23 14:53:00
9:53 AM,42.1,25.0,51,30.55,10.0,North,15.0,-,N/A,,Clear,360,2013-11-23 15:53:00
10:53 AM,43.0,17.1,35,30.54,10.0,North,18.4,-,N/A,,Clear,350,2013-11-23 16:53:00
11:53 AM,43.0,16.0,34,30.51,10.0,North,18.4,-,N/A,,Clear,350,2013-11-23 17:53:00
12:53 PM,43.0,17.1,35,30.51,10.0,North,15.0,-,N/A,,Clear,360,2013-11-23 18:53:00
1:53 PM,45.0,19.9,37,30.50,10.0,North,17.3,-,N/A,,Clear,350,2013-11-23 19:53:00
2:53 PM,42.1,21.0,43,30.53,10.0,North,21.9,27.6,N/A,,Clear,10,2013-11-23 20:53:00
3:53 PM,37.0,18.0,46,30.56,10.0,North,19.6,27.6,N/A,,Clear,350,2013-11-23 21:53:00
4:53 PM,34.0,17.1,50,30.57,10.0,North,17.3,-,N/A,,Clear,360,2013-11-23 22:53:00
5:53 PM,32.0,15.1,50,30.59,10.0,North,17.3,26.5,N/A,,Clear,360,2013-11-23 23:53:00
6:53 PM,30.9,17.1,57,30.61,10.0,North,11.5,-,N/A,,Partly Cloudy,360,2013-11-24 00:53:00
7:53 PM,30.9,17.1,57,30.63,10.0,North,15.0,-,N/A,,Mostly Cloudy,10,2013-11-24 01:53:00
8:53 PM,27.0,14.0,58,30.65,10.0,North,16.1,26.5,N/A,,Clear,10,2013-11-24 02:53:00
9:53 PM,27.0,14.0,58,30.65,10.0,NNE,13.8,-,N/A,,Mostly Cloudy,20,2013-11-24 03:53:00
10:53 PM,25.0,12.0,58,30.66,10.0,North,15.0,-,N/A,,Mostly Cloudy,10,2013-11-24 04:53:00
11:53 PM,25.0,12.0,58,30.67,10.0,NNE,15.0,-,N/A,,Mostly Cloudy,30,2013-11-24 05:53:00